Location: Kitchener
(43.4500°N, 80.5000°W)
Time: 17:23:07
(UTC-04:00)

Cosmos 1939 Rocket - Visible Passes

Search period start: 22 May 2017 00:00
Search period end: 01 June 2017 00:00
Orbit: 534 x 586 km, 97.5° (Epoch: 21 May)

Date Brightness Start Highest point End Pass type
(mag) Time Alt. Az. Time Alt. Az. Time Alt. Az.
22 May 4.6 22:11:04 10° SSW 22:14:26 28° W 22:17:48 10° NW visible
23 May 4.6 22:09:50 10° SSW 22:13:14 29° W 22:16:37 10° NW visible
24 May 4.5 22:08:36 10° SSW 22:12:01 30° W 22:15:27 10° NW visible
25 May 4.5 22:07:22 10° SSW 22:10:48 31° W 22:14:17 10° NNW visible
26 May 4.4 22:06:08 10° SSW 22:09:36 31° W 22:13:06 10° NNW visible
27 May 4.4 22:04:54 10° SSW 22:08:23 32° W 22:11:54 10° NNW visible
28 May 4.3 22:03:39 10° SSW 22:07:10 33° W 22:10:43 10° NNW visible
29 May 4.3 22:02:25 10° SSW 22:05:58 35° W 22:09:33 10° NNW visible
30 May 4.2 22:01:11 10° SSW 22:04:44 36° W 22:08:21 10° NNW visible
31 May 4.1 21:59:56 10° SSW 22:03:31 37° W 22:07:09 10° NNW visible
